This demonstration page uses our WeatherBlox Daily Observations layout. Learn more.

Hourly Observations for January 18, 2016

Temp ( °F °C ) Dew Point ( °F °C ) Humidity (%) Winds ( mph kmh ) Pressure ( in mb ) Visibility ( mi km ) Precip ( " mm )
12:15 am 00:15 Cloudy 14 -10 9 -13 79 79 Calm 30.45 1031 10 16.09344 0 0
12:35 am 00:35 Cloudy 14 -10 9 -13 79 79 Calm 30.45 1031 10 16.09344 0 0
12:55 am 00:55 Mostly Cloudy 14 -10 9 -13 79 79 SE 3 6 30.45 1031 10 16.09344 0 0
1:15 am 01:15 Partly Cloudy 12 -11 9 -13 85 85 SE 5 7 30.45 1031 10 16.09344 0 0
1:35 am 01:35 Partly Cloudy 10 -12 7 -14 85 85 SE 6 9 30.45 1031 10 16.09344 0 0
1:55 am 01:55 Clear 9 -13 5 -15 85 85 ESE 5 7 30.45 1031 10 16.09344 0 0
2:15 am 02:15 Clear 9 -13 7 -14 92 92 ESE 5 7 30.45 1031 10 16.09344 0 0
2:35 am 02:35 Clear 9 -13 7 -14 92 92 SE 5 7 30.45 1031 10 16.09344 0 0
2:55 am 02:55 Clear 9 -13 5 -15 85 85 SSE 5 7 30.45 1031 10 16.09344 0 0
3:15 am 03:15 Partly Cloudy 10 -12 7 -14 85 85 SSE 3 6 30.45 1031 10 16.09344 0 0
3:35 am 03:35 Partly Cloudy 9 -13 5 -15 85 85 SSE 6 9 30.45 1031 10 16.09344 0 0
3:55 am 03:55 Clear 9 -13 5 -15 85 85 SE 5 7 30.42 1030 10 16.09344 0 0
4:15 am 04:15 Clear 9 -13 5 -15 85 85 SE 5 7 30.42 1030 10 16.09344 0 0
4:35 am 04:35 Clear 9 -13 5 -15 85 85 ESE 3 6 30.42 1030 10 16.09344 0 0
4:55 am 04:55 Clear 9 -13 5 -15 85 85 SE 5 7 30.42 1030 10 16.09344 0 0
5:15 am 05:15 Partly Cloudy 9 -13 5 -15 85 85 SSE 5 7 30.42 1030 10 16.09344 0 0
5:35 am 05:35 Clear 9 -13 5 -15 85 85 SSE 3 6 30.42 1030 10 16.09344 0 0
5:55 am 05:55 Clear 9 -13 5 -15 85 85 SSE 5 7 30.42 1030 10 16.09344 0 0
6:15 am 06:15 Clear 9 -13 7 -14 92 92 SSE 3 6 30.42 1030 10 16.09344 0 0
6:35 am 06:35 Clear 10 -12 7 -14 85 85 SSE 6 9 30.42 1030 10 16.09344 0 0
6:55 am 06:55 Clear 10 -12 7 -14 85 85 SSE 6 9 30.42 1030 10 16.09344 0 0
7:15 am 07:15 Mostly Cloudy 12 -11 9 -13 85 85 SSE 5 7 30.42 1030 10 16.09344 0 0
7:35 am 07:35 Mostly Cloudy 12 -11 9 -13 85 85 SSE 3 6 30.42 1030 10 16.09344 0 0
7:55 am 07:55 Clear 12 -11 9 -13 85 85 SSE 3 6 30.42 1030 10 16.09344 0 0
8:15 am 08:15 Sunny 12 -11 9 -13 85 85 SSE 6 9 30.42 1030 10 16.09344 0 0
8:35 am 08:35 Sunny 12 -11 9 -13 85 85 SSE 7 11 30.42 1030 10 16.09344 0 0
8:55 am 08:55 Mostly Cloudy 14 -10 10 -12 85 85 SSE 7 11 30.39 1029 10 16.09344 0 0
9:15 am 09:15 Cloudy 16 -9 12 -11 86 86 S 8 13 30.39 1029 10 16.09344 0 0
9:35 am 09:35 Cloudy 18 -8 14 -10 86 86 S 8 13 30.39 1029 10 16.09344 0 0
9:55 am 09:55 Cloudy 18 -8 14 -10 86 86 SSE 9 15 30.39 1029 10 16.09344 0 0
10:15 am 10:15 Cloudy 19 -7 16 -9 86 86 S 10 17 30.36 1028 10 16.09344 0 0
10:35 am 10:35 Cloudy 19 -7 16 -9 86 86 S 10 17 30.36 1028 10 16.09344 0 0
10:55 am 10:55 Cloudy 21 -6 16 -9 80 80 S 12 19 30.36 1028 10 16.09344 0 0
11:15 am 11:15 Cloudy 21 -6 16 -9 80 80 S 12 19 30.36 1028 10 16.09344 0 0
11:35 am 11:35 Cloudy 21 -6 16 -9 80 80 S 13 20 30.33 1027 10 16.09344 0 0
11:55 am 11:55 Cloudy 23 -5 16 -9 74 74 S 13 20 30.3 1026 10 16.09344 0 0
12:15 pm 12:15 Cloudy 23 -5 16 -9 74 74 S 14 22 30.3 1026 10 16.09344 0 0
12:35 pm 12:35 Cloudy 25 -4 16 -9 69 69 S 9 15 30.27 1025 10 16.09344 0 0
12:55 pm 12:55 Partly Cloudy 27 -3 16 -9 64 64 S 12 19 30.27 1025 10 16.09344 0 0
1:15 pm 13:15 Partly Cloudy 28 -2 16 -9 59 59 SSW 15 24 30.24 1024 10 16.09344 0 0
1:35 pm 13:35 Sunny 28 -2 16 -9 59 59 S 12 19 30.21 1023 10 16.09344 0 0
1:55 pm 13:55 Sunny 28 -2 18 -8 64 64 S 12 19 30.21 1023 10 16.09344 0 0
2:15 pm 14:15 Partly Cloudy 30 -1 18 -8 59 59 S 13 20 30.21 1023 10 16.09344 0 0
2:35 pm 14:35 Sunny 30 -1 18 -8 59 59 S 12 19 30.21 1023 10 16.09344 0 0
2:55 pm 14:55 Sunny 30 -1 18 -8 59 59 S 13 20 30.18 1022 10 16.09344 0 0
3:15 pm 15:15 Sunny 28 -2 18 -8 64 64 SSE 15 24 30.18 1022 10 16.09344 0 0
3:35 pm 15:35 Sunny 28 -2 18 -8 64 64 S 14 22 30.18 1022 10 16.09344 0 0
3:55 pm 15:55 Sunny 30 -1 18 -8 59 59 S 12 19 30.18 1022 10 16.09344 0 0
4:15 pm 16:15 Sunny 28 -2 18 -8 64 64 SSE 13 20 30.18 1022 10 16.09344 0 0
4:35 pm 16:35 Sunny 28 -2 18 -8 64 64 SSE 8 13 30.18 1022 10 16.09344 0 0
4:55 pm 16:55 Sunny 28 -2 18 -8 64 64 SSE 9 15 30.18 1022 10 16.09344 0 0
5:15 pm 17:15 Sunny 28 -2 18 -8 64 64 SSE 9 15 30.18 1022 10 16.09344 0 0
5:35 pm 17:35 Mostly Cloudy 28 -2 18 -8 64 64 SSE 10 17 30.18 1022 10 16.09344 0 0
5:55 pm 17:55 Cloudy 27 -3 18 -8 69 69 SSE 13 20 30.21 1023 10 16.09344 0 0
6:15 pm 18:15 Partly Cloudy 27 -3 18 -8 69 69 SE 10 17 30.21 1023 10 16.09344 0 0
6:35 pm 18:35 Clear 27 -3 18 -8 69 69 SE 12 19 30.21 1023 10 16.09344 0 0
6:55 pm 18:55 Partly Cloudy 27 -3 19 -7 74 74 SSE 10 17 30.21 1023 10 16.09344 0 0
7:15 pm 19:15 Mostly Cloudy 27 -3 19 -7 74 74 SSE 8 13 30.21 1023 10 16.09344 0 0
7:35 pm 19:35 Cloudy 27 -3 18 -8 69 69 SSE 10 17 30.21 1023 10 16.09344 0 0
7:55 pm 19:55 Cloudy 27 -3 18 -8 69 69 SSE 9 15 30.21 1023 10 16.09344 0 0
8:15 pm 20:15 Cloudy 27 -3 18 -8 69 69 SSE 12 19 30.21 1023 10 16.09344 0 0
8:35 pm 20:35 Cloudy 27 -3 18 -8 69 69 SSE 12 19 30.21 1023 10 16.09344 0 0
8:55 pm 20:55 Cloudy 27 -3 18 -8 69 69 SSE 12 19 30.21 1023 10 16.09344 0 0
9:15 pm 21:15 Mostly Cloudy 27 -3 18 -8 69 69 SSE 8 13 30.21 1023 10 16.09344 0 0
9:35 pm 21:35 Mostly Cloudy 27 -3 18 -8 69 69 SSE 12 19 30.21 1023 10 16.09344 0 0
9:55 pm 21:55 Cloudy 27 -3 18 -8 69 69 SSE 13 20 30.21 1023 10 16.09344 0 0
10:15 pm 22:15 Cloudy 27 -3 18 -8 69 69 SSE 14 22 30.21 1023 10 16.09344 0 0
10:35 pm 22:35 Cloudy 27 -3 18 -8 69 69 SSE 10 17 30.21 1023 10 16.09344 0 0
10:55 pm 22:55 Cloudy 27 -3 18 -8 69 69 SSE 13 20 30.24 1024 10 16.09344 0 0
11:15 pm 23:15 Cloudy 27 -3 18 -8 69 69 SE 13 20 30.24 1024 10 16.09344 0 0
11:35 pm 23:35 Cloudy 27 -3 18 -8 69 69 SE 10 17 30.24 1024 10 16.09344 0 0
11:55 pm 23:55 Cloudy 27 -3 18 -8 69 69 SE 10 17 30.21 1023 10 16.09344 0 0

Powered by AerisWeather